Hourly Data Report for October 30, 2016

All times are specified in Local Standard Time (LST). Add 1 hour to adjust for Daylight Saving Time where and when it is observed.

BAKER LAKE A
NUNAVUT

64°17'56.000" N
96°04'40.000" W
18.60 m
2300503
71926
YBK

Download Data

Hourly Data (October 2016)
Hourly Data Report for October 30, 2016
Temp Definition
°C
Dew Point Temp Definition
°C
Rel Hum Definition
%
Wind Dir Definition
10's deg

Wind Spd Definition
km/h
Visibility Definition
km
Stn Press Definition
kPa
Hmdx Definition


Wind Chill Definition


Weather Definition


TIME
00:00 Legend Double Dagger -12.5 -15.4 79 36 33 24.1 100.51   -23 Blowing Snow
01:00 Legend Double Dagger -14.1 -17.3 77 34 28 24.1 100.68   -25 Blowing Snow
02:00 Legend Double Dagger -14.6 -17.8 77 33 32 24.1 100.83   -26 Blowing Snow
03:00 Legend Double Dagger -15.3 -18.3 78 33 32 24.1 100.94   -27 Blowing Snow
04:00 Legend Double Dagger -15.2 -18.4 77 33 26 24.1 100.99   -26 Blowing Snow
05:00 Legend Double Dagger -15.5 -18.2 80 30 33 24.1 101.04   -27 Blowing Snow
06:00 Legend Double Dagger -14.4 -18.1 74 29 32 24.1 101.05   -26 Clear
07:00 Legend Double Dagger -13.5 -16.7 77 29 32 32.2 101.02   -24 LegendNANA
08:00 Legend Double Dagger -10.6 -12.7 85 29 30 32.2 100.99   -20 LegendNANA
09:00 Legend Double Dagger -7.2 -9.2 86 31 31 32.2 100.96   -16 Mostly Cloudy
10:00 Legend Double Dagger -6.4 -8.2 87 30 32 32.2 100.97   -15 Blowing Snow
11:00 Legend Double Dagger -5.9 -7.7 87 31 41 24.1 100.95   -15 Snow,Blowing Snow
12:00 Legend Double Dagger -6.3 -8.1 87 31 44 16.1 100.98   -16 Snow,Blowing Snow
13:00 Legend Double Dagger -6.3 -8.0 88 31 44 16.1 100.99   -16 Snow,Blowing Snow
14:00 Legend Double Dagger -6.5 -8.5 86 31 43 9.7 100.99   -16 Snow,Blowing Snow
15:00 Legend Double Dagger -6.8 -8.6 87 32 49 9.7 100.98   -17 Snow,Blowing Snow
16:00 Legend Double Dagger -7.1 -8.8 88 32 53 8.1 100.99   -18 Blowing Snow
17:00 Legend Double Dagger -7.4 -9.2 87 32 36 9.7 101.03   -17 Blowing Snow
18:00 Legend Double Dagger -7.8 -9.6 87 32 46 11.3 101.01   -18 Blowing Snow
19:00 Legend Double Dagger -7.9 -9.9 86 32 39 16.1 100.99   -18 Blowing Snow
20:00 Legend Double Dagger -9.0 -11.1 85 32 48 16.1 100.92   -20 Blowing Snow
21:00 Legend Double Dagger -9.6 -11.7 85 32 37 16.1 100.93   -20 Blowing Snow
22:00 Legend Double Dagger -10.0 -12.2 84 31 27 24.1 101.00   -19 Blowing Snow
23:00 Legend Double Dagger -9.6 -11.7 85 31 41 24.1 100.94   -20 Blowing Snow

Notes on Data Quality.

Legend

  • E = Estimated
  • M = Missing
  • NA = Not Available
  • ‡ = Partner data that is not subject to review by the National Climate Archives
Date modified: